This is the latest recevied weather packets stored in our database for station/object EB1HRW. If no packets are shown the sender has not sent any weather packets the latest 10 day(s).
| Time | Temp. | Humidity | Pressure | Rain* | Wind** | Luminosity | Snow |
|---|---|---|---|---|---|---|---|
| 1778136837 | 8.33° C | 85% | 1010.1 hPa | 0 mm | - | - | - |
| 1778135938 | 8.33° C | 85% | 1010.1 hPa | 0 mm | - | - | - |
| 1778135037 | 8.33° C | 85% | 1010.3 hPa | 0 mm | - | - | - |
| 1778134137 | 8.33° C | 85% | 1010 hPa | 0 mm | - | - | - |
| 1778133238 | 8.33° C | 85% | 1010 hPa | 0 mm | - | - | - |
| 1778132337 | 8.33° C | 85% | 1010 hPa | 0 mm | - | - | - |
| 1778131438 | 8.33° C | 85% | 1010 hPa | 0 mm | - | - | - |
| 1778130538 | 8.33° C | 84% | 1009.9 hPa | 0 mm | - | - | - |
| 1778129637 | 8.33° C | 84% | 1009.8 hPa | 0 mm | - | - | - |
| 1778128738 | 7.78° C | 84% | 1010 hPa | 0 mm | - | - | - |
| 1778127837 | 8.33° C | 85% | 1010.1 hPa | 0 mm | - | - | - |
| 1778126938 | 8.89° C | 84% | 1010.1 hPa | 0 mm | - | - | - |
| 1778126038 | 9.44° C | 83% | 1010.2 hPa | 0 mm | - | - | - |
| 1778125139 | 9.44° C | 82% | 1010 hPa | 0 mm | - | - | - |
| 1778124237 | 10° C | 82% | 1009.9 hPa | 0 mm | - | - | - |
| 1778123338 | 10° C | 81% | 1010 hPa | 0 mm | - | - | - |
| 1778122437 | 10° C | 81% | 1009.9 hPa | 0 mm | - | - | - |
| 1778121537 | 10.56° C | 81% | 1009.9 hPa | 0 mm | - | - | - |
| 1778120638 | 10.56° C | 80% | 1010 hPa | 0 mm | - | - | - |
| 1778119737 | 10.56° C | 79% | 1010.1 hPa | 0 mm | - | - | - |
| 1778118838 | 11.11° C | 78% | 1010.1 hPa | 0 mm | - | - | - |
| 1778117938 | 10.56° C | 81% | 1010.2 hPa | 0 mm | - | - | - |
| 1778117037 | 10.56° C | 82% | 1010.4 hPa | 0 mm | - | - | - |
| 1778116138 | 10° C | 82% | 1010.4 hPa | 0 mm | - | - | - |
| 1778115238 | 10° C | 82% | 1010.6 hPa | 0 mm | - | - | - |
* Rain latest hour (hover to see other rain measurements)
** Current wind speed in m/s (hover to see current wind gust speed)